CAPE
6 7 8 6 4 1 0 0 0 0 0 0 0 0 0 0 0 0 0 0 0 0 0 0 0 0 0 0 0 0 0 0 0 4 0 0 0 0 0 57 70 162 393 365 68
8 7 6 3 4 2 0 0 0 0 0 0 0 0 0 0 0 0 0 0 0 0 0 0 0 0 0 0 0 0 0 0 16 0 0 0 0 0 4 82 158 375 345 275 35
6 1 1 2 2 1 0 0 0 0 0 0 0 0 0 0 0 0 0 0 0 0 0 0 0 0 0 0 0 0 0 0 9 0 0 0 0 0 0 3 3 220 322 112 0
2 0 1 2 2 1 0 0 0 0 0 0 0 0 0 0 0 0 0 0 0 0 0 0 0 0 0 0 0 0 0 3 8 0 0 0 0 0 0 0 0 0 0 0 0
15 9 3 1 0 0 0 0 0 0 0 0 0 0 0 0 0 0 0 0 0 0 0 0 0 0 0 0 0 0 0 0 54 0 0 0 0 0 0 0 0 0 0 0 0
16 11 3 1 0 0 0 0 0 0 0 0 0 0 0 0 0 0 0 0 0 0 0 0 0 0 0 0 0 0 0 7 3 0 0 0 0 0 0 0 0 0 0 0 0
14 6 1 0 0 0 0 0 0 0 0 0 0 0 0 0 0 0 0 0 0 0 0 0 0 0 0 0 0 0 0 0 0 0 0 0 0 0 0 0 0 0 0 0 0
5 2 0 0 0 0 0 0 0 0 0 0 0 0 0 0 0 0 0 0 0 0 0 0 0 0 0 0 0 0 0 0 0 0 0 0 0 0 0 0 0 0 0 0 0
8 4 0 0 0 0 0 0 0 0 0 0 0 0 0 0 0 0 0 0 0 0 0 0 0 0 0 0 0 0 0 0 0 0 0 0 0 0 0 0 0 0 0 0 0
8 6 2 0 0 0 0 0 0 0 0 0 0 0 0 0 0 0 0 0 0 0 0 0 0 0 0 0 0 0 0 0 0 0 0 0 0 0 0 0 0 0 0 0 0
8 12 7 0 0 0 0 0 0 0 0 0 0 0 0 0 0 0 0 0 0 0 0 0 0 0 0 0 0 0 0 0 0 0 0 0 0 0 0 0 0 0 0 0 0
7 5 1 0 0 0 0 0 0 0 0 0 0 0 0 0 0 0 0 0 0 0 0 0 0 0 0 0 0 0 0 0 0 0 0 0 0 0 0 0 0 0 0 0 0
10 1 0 0 0 0 0 0 0 0 0 0 0 0 0 0 0 0 0 0 0 0 0 0 0 0 0 0 0 0 0 0 0 0 0 0 0 0 0 0 0 0 0 0 0
10 0 0 0 0 0 0 0 0 0 0 0 0 0 0 0 0 0 0 0 0 0 0 0 0 0 0 0 0 0 0 0 0 0 0 0 0 0 0 0 0 0 0 0 0
8 3 0 0 0 0 0 0 0 0 0 0 0 0 0 0 0 0 0 0 0 0 0 0 0 0 0 0 0 0 0 0 0 0 0 0 0 0 0 0 0 0 0 0 0
4 3 0 0 0 0 0 0 0 0 0 0 0 0 0 0 0 0 0 0 0 0 0 0 0 0 0 0 0 0 0 0 0 0 0 0 0 0 0 0 0 0 0 0 0
2 0 0 0 0 0 0 0 0 0 0 0 0 0 0 0 0 0 0 0 0 0 0 0 0 0 0 0 0 0 1 0 0 0 0 0 0 0 0 0 0 0 0 0 0
1 0 0 0 0 0 0 1 0 0 0 0 0 0 0 0 0 0 0 0 0 0 0 0 0 0 0 0 0 0 0 0 0 0 0 0 0 0 0 0 0 0 0 0 0
0 0 0 0 0 0 1 0 0 0 0 0 0 0 0 0 0 0 0 0 0 0 0 0 0 0 0 0 0 0 0 0 0 0 0 0 0 0 0 0 0 0 0 0 0
0 0 0 0 0 20 3 1 0 0 0 0 0 0 0 0 0 0 0 0 0 0 0 0 0 0 0 0 0 0 0 0 0 0 0 0 0 0 0 0 0 0 0 0 0
0 0 0 0 0 14 1 1 0 0 0 0 0 0 0 0 0 0 0 0 0 0 0 0 0 0 0 0 0 0 0 0 0 0 0 0 0 0 0 0 0 0 0 0 0
0 0 0 0 9 22 2 0 0 0 0 0 0 0 0 0 0 0 0 0 0 0 0 0 0 0 0 0 0 0 0 0 0 0 0 0 0 0 0 0 0 0 0 0 0
0 0 0 8 1 0 0 0 0 0 0 0 0 0 0 0 0 0 0 0 0 0 0 0 0 0 0 0 0 0 0 0 0 0 0 0 0 0 0 0 0 0 0 0 0
0 0 0 6 1 0 0 0 1 0 0 0 0 0 0 0 0 0 0 0 0 0 0 0 0 0 0 0 0 0 0 0 0 0 0 0 0 0 0 0 0 0 0 0 0
0 0 10 0 0 0 0 0 0 0 5 0 0 0 0 0 0 0 0 0 0 0 0 0 0 0 0 0 0 0 0 0 0 0 0 0 0 0 0 0 0 0 0 0 0
0 1 0 0 0 0 0 0 0 0 0 0 0 0 0 0 0 0 0 0 0 0 0 0 0 0 0 0 0 0 0 0 0 0 0 0 0 0 0 0 0 0 0 0 0
0 1 0 0 0 0 0 0 0 2 0 3 0 0 0 0 0 0 0 0 0 0 0 0 0 0 0 0 0 0 0 0 0 0 0 0 0 0 0 0 0 0 0 0 0
CIN
-0 -0 -0 -0 -0 -0 -0 -0 -0 -0 -0 -0 -0 -0 -0 -0 -0 -0 -0 -0 -0 -0 -0 -0 -0 -0 -0 -0 -0 -0 -0 -0 -33 -136 -0 -0 -0 -0 -22 -194 -162 -108 -79 -179 -155
-0 -0 -0 -0 -0 -0 -0 -0 -0 -0 -0 -0 -0 -0 -0 -0 -0 -0 -0 -0 -0 -0 -0 -0 -0 -0 -0 -0 -0 -0 -0 -0 -192 -0 -0 -0 -0 -0 -50 -169 -140 -57 -70 -117 -223
-0 -0 -0 -0 -0 -0 -0 -0 -0 -0 -0 -0 -0 -0 -0 -0 -0 -0 -0 -0 -0 -0 -0 -0 -0 -0 -0 -0 -0 -0 -0 -0 -194 -0 -0 -0 -0 -0 -0 -281 -31 -67 -38 -114 -0
-3 -0 -0 -0 -0 -0 -0 -0 -0 -0 -0 -0 -0 -0 -0 -0 -0 -0 -0 -0 -0 -0 -0 -0 -0 -0 -0 -0 -0 -0 -0 -73 -275 -0 -0 -0 -0 -0 -0 -0 -0 -0 -0 -0 -0
-0 -0 -0 -0 -0 -0 -0 -0 -0 -0 -0 -0 -0 -0 -0 -0 -0 -0 -0 -0 -0 -0 -0 -0 -0 -0 -0 -0 -0 -0 -0 -38 -195 -0 -0 -0 -0 -0 -0 -0 -0 -0 -0 -0 -0
-0 -0 -0 -0 -0 -0 -0 -0 -0 -0 -0 -0 -0 -0 -0 -0 -0 -0 -0 -0 -0 -0 -0 -0 -0 -0 -0 -0 -0 -0 -0 -275 -193 -0 -0 -0 -0 -0 -0 -0 -0 -0 -0 -0 -0
-7 -8 -0 -0 -0 -0 -0 -0 -0 -0 -0 -0 -0 -0 -0 -0 -0 -0 -0 -0 -0 -0 -0 -0 -0 -0 -0 -0 -0 -0 -0 -0 -0 -0 -0 -0 -0 -0 -0 -0 -0 -0 -0 -0 -0
-0 -13 -0 -0 -0 -0 -0 -0 -0 -0 -0 -0 -0 -0 -0 -0 -0 -0 -0 -0 -0 -0 -0 -0 -0 -0 -0 -0 -0 -0 -0 -0 -0 -0 -0 -0 -0 -0 -0 -0 -0 -0 -0 -0 -0
-0 -0 -0 -0 -0 -0 -0 -0 -0 -0 -0 -0 -0 -0 -0 -0 -0 -0 -0 -0 -0 -0 -0 -0 -0 -0 -0 -0 -0 -0 -0 -0 -0 -0 -0 -0 -0 -0 -0 -0 -0 -0 -0 -0 -0
-0 -0 -0 -0 -0 -0 -0 -0 -0 -0 -0 -0 -0 -0 -0 -0 -0 -0 -0 -0 -0 -0 -0 -0 -0 -0 -0 -0 -0 -0 -0 -0 -0 -0 -0 -0 -0 -0 -0 -0 -0 -0 -0 -0 -0
-0 -0 -0 -0 -0 -0 -0 -0 -0 -0 -0 -0 -0 -0 -0 -0 -0 -0 -0 -0 -0 -0 -0 -0 -0 -0 -0 -0 -0 -0 -0 -0 -0 -0 -0 -0 -0 -0 -0 -0 -0 -0 -0 -0 -0
-0 -0 -0 -0 -0 -0 -0 -0 -0 -0 -0 -0 -0 -0 -0 -0 -0 -0 -0 -0 -0 -0 -0 -0 -0 -0 -0 -0 -0 -0 -0 -0 -0 -0 -0 -0 -0 -0 -0 -0 -0 -0 -0 -0 -0
-0 -0 -0 -0 -0 -0 -0 -2 -0 -0 -0 -0 -0 -0 -0 -0 -0 -0 -0 -0 -0 -0 -0 -0 -0 -0 -0 -0 -0 -0 -0 -0 -0 -0 -0 -0 -0 -0 -0 -0 -0 -0 -0 -0 -0
-0 -0 -0 -0 -0 -0 -0 -0 -0 -0 -0 -0 -0 -0 -0 -0 -0 -0 -0 -0 -0 -0 -0 -0 -0 -0 -0 -0 -0 -0 -0 -0 -0 -0 -0 -0 -0 -0 -0 -0 -0 -0 -0 -0 -0
-0 -0 -0 -0 -0 -0 -0 -0 -0 -0 -0 -0 -0 -0 -0 -0 -0 -0 -0 -0 -0 -0 -0 -0 -0 -0 -0 -0 -0 -0 -0 -0 -0 -0 -0 -0 -0 -0 -0 -0 -0 -0 -0 -0 -0
-0 -0 -0 -0 -0 -0 -0 -0 -0 -0 -0 -0 -0 -0 -0 -0 -0 -0 -0 -0 -0 -0 -0 -0 -0 -0 -0 -0 -0 -0 -0 -11 -13 -0 -0 -0 -0 -0 -0 -0 -0 -0 -0 -0 -0
-0 -0 -0 -0 -0 -0 -0 -0 -0 -0 -0 -0 -0 -0 -0 -0 -0 -0 -0 -0 -0 -0 -0 -0 -0 -0 -0 -0 -0 -0 -19 -0 -0 -0 -0 -0 -0 -0 -0 -0 -0 -0 -0 -0 -0
-0 -0 -0 -0 -0 -0 -0 -1 -0 -0 -0 -0 -0 -0 -0 -0 -0 -0 -0 -0 -0 -0 -0 -0 -0 -0 -0 -0 -0 -0 -0 -0 -0 -0 -0 -0 -0 -0 -0 -0 -0 -0 -0 -0 -0
-0 -0 -0 -0 -0 -0 -3 -0 -0 -0 -0 -0 -0 -0 -0 -0 -0 -0 -0 -0 -0 -0 -0 -0 -0 -0 -0 -0 -0 -0 -0 -0 -0 -0 -0 -0 -0 -0 -0 -0 -0 -0 -0 -0 -0
-0 -0 -0 -0 -0 -5 -1 -0 -0 -0 -0 -0 -0 -0 -0 -0 -0 -0 -0 -0 -0 -0 -0 -0 -0 -0 -0 -0 -0 -0 -0 -0 -0 -0 -0 -0 -0 -0 -0 -0 -0 -0 -0 -0 -0
-0 -0 -0 -0 -2 -3 -0 -2 -0 -0 -0 -0 -0 -0 -0 -0 -0 -0 -0 -0 -0 -0 -0 -0 -0 -0 -0 -0 -0 -0 -0 -0 -0 -0 -0 -0 -0 -0 -0 -0 -0 -0 -0 -0 -0
-0 -0 -0 -0 -0 -0 -1 -0 -0 -0 -0 -0 -0 -0 -0 -0 -0 -0 -0 -0 -0 -0 -0 -0 -0 -0 -0 -0 -0 -0 -0 -0 -0 -0 -0 -0 -0 -0 -0 -0 -0 -0 -0 -0 -0
-0 -0 -0 -3 -12 -0 -0 -0 -0 -0 -0 -0 -0 -0 -0 -0 -0 -0 -0 -0 -0 -0 -0 -0 -0 -0 -0 -0 -0 -0 -0 -0 -0 -0 -0 -0 -0 -0 -0 -0 -0 -0 -0 -0 -0
-0 -0 -0 -2 -0 -0 -0 -0 -2 -0 -0 -0 -0 -0 -0 -0 -0 -0 -0 -0 -0 -0 -0 -0 -0 -0 -0 -0 -0 -0 -0 -0 -0 -0 -0 -0 -0 -0 -0 -0 -0 -0 -0 -0 -0
-0 -0 -3 -0 -0 -0 -0 -0 -0 -0 -9 -0 -0 -0 -0 -0 -0 -0 -0 -0 -0 -0 -0 -0 -0 -0 -0 -0 -0 -0 -0 -0 -0 -0 -0 -0 -0 -0 -0 -0 -0 -0 -0 -0 -0
-0 -1 -0 -0 -0 -0 -0 -0 -0 -0 -0 -0 -0 -0 -0 -0 -0 -0 -0 -0 -0 -0 -0 -0 -0 -0 -0 -0 -0 -0 -0 -0 -0 -0 -0 -0 -0 -0 -0 -0 -0 -0 -0 -0 -0
-1 -3 -0 -0 -0 -0 -0 -0 -0 -0 -0 -4 -0 -0 -0 -0 -0 -0 -0 -0 -0 -0 -0 -0 -0 -0 -0 -0 -0 -0 -0 -0 -0 -0 -0 -0 -0 -0 -0 -0 -0 -0 -0 -0 -0
Wind_Speed
28 28 28 28 28 28 28 28 28 28 28 28 27 28 27 28 29 20 14 9 13 23 21 23 21 18 17 17 16 14 20 23 15 17 15 16 12 12 10 7 9 13 5 11 5
29 29 29 29 29 29 29 29 29 29 28 28 28 28 27 27 24 25 9 13 10 16 18 19 16 19 15 14 14 16 20 23 14 6 11 6 5 12 10 8 8 3 3 2 1
29 30 30 30 30 30 31 30 30 30 29 28 28 27 27 26 21 16 15 2 8 15 18 17 18 16 12 12 10 13 21 16 9 4 6 8 9 11 9 12 10 6 3 2 1
30 30 31 31 31 31 32 31 31 31 30 29 27 27 27 16 15 15 7 5 9 13 15 14 15 14 13 11 9 15 19 15 11 7 10 14 10 9 5 6 5 1 2 3 2
31 32 32 32 32 32 33 32 32 32 31 29 27 25 19 17 18 15 6 9 11 11 11 11 15 14 15 13 12 16 14 14 10 8 6 1 4 6 4 2 5 4 3 3 4
32 32 32 33 33 34 34 34 34 33 32 30 27 24 17 19 15 7 5 9 11 9 10 11 14 15 18 16 14 9 7 5 8 8 8 6 5 11 5 1 2 4 3 3 5
33 33 33 34 35 36 36 36 35 34 33 30 25 20 20 19 15 9 7 11 11 11 15 18 20 14 16 15 2 2 3 2 5 10 7 7 16 14 8 3 2 2 4 4 7
35 35 35 36 37 38 38 38 37 36 32 27 21 18 24 19 24 25 23 19 16 16 13 18 17 14 14 8 8 7 7 8 6 7 12 20 23 16 10 6 5 4 4 5 7
37 37 37 38 39 39 39 39 38 30 22 17 16 17 25 24 18 19 11 11 16 16 16 18 16 13 14 6 7 13 11 10 8 12 12 23 20 18 12 9 9 7 5 6 6
37 38 38 39 39 40 40 39 29 21 17 14 20 20 23 19 17 14 12 13 15 13 14 14 14 11 10 6 12 12 12 14 13 13 14 16 22 19 15 11 11 8 10 7 7
38 37 38 38 39 38 36 23 22 22 22 21 19 21 20 17 16 15 16 15 15 12 13 13 14 10 10 10 9 11 13 12 13 14 18 19 19 20 20 17 14 12 9 8 12
38 38 38 38 38 36 26 22 20 24 33 33 38 33 37 25 20 12 9 13 15 16 13 16 12 10 13 10 8 8 10 14 17 10 17 17 18 20 24 23 17 16 12 10 7
37 38 38 39 38 23 24 22 24 25 30 33 28 31 26 19 22 17 12 14 19 19 16 16 19 16 12 11 9 11 10 10 8 8 15 13 19 19 22 24 21 19 14 11 7
38 37 37 37 21 25 21 26 26 21 31 32 28 29 23 20 26 19 16 15 19 18 18 21 24 17 11 13 10 11 13 12 8 9 11 14 23 22 20 21 24 20 15 12 10
38 37 36 32 29 24 24 28 26 17 33 24 24 20 19 22 17 23 17 19 19 17 17 18 14 14 18 10 12 9 12 10 9 10 13 15 23 24 15 17 20 23 17 12 9
38 38 37 28 26 24 27 27 16 23 33 25 17 20 20 24 23 18 22 20 22 23 24 27 20 14 15 13 9 10 7 6 9 15 19 13 22 26 14 14 17 19 17 13 10
39 38 36 27 22 21 25 19 23 31 25 24 22 18 21 26 25 22 21 22 21 23 28 28 31 25 15 13 10 8 11 8 10 12 23 16 23 32 8 10 14 13 13 12 10
40 38 29 22 21 22 20 21 30 28 30 23 23 20 22 21 28 25 23 25 30 24 24 24 25 21 16 16 10 13 12 10 9 9 19 19 27 27 13 10 10 13 11 10 9
39 30 24 19 15 14 19 29 31 24 22 27 27 26 26 24 21 28 30 27 28 29 24 23 24 22 20 19 11 17 14 8 13 17 10 14 22 26 21 8 9 10 12 13 9
34 26 24 22 9 12 22 32 30 21 24 23 26 23 27 27 25 27 29 28 28 29 30 23 26 24 18 21 23 19 14 12 15 11 12 18 18 17 9 12 13 13 18 14 12
27 23 19 19 10 17 27 32 32 27 25 23 24 26 23 24 30 29 31 27 28 29 31 28 26 29 23 26 24 19 20 18 16 16 13 15 22 24 14 14 18 18 17 16 15
24 23 17 20 16 19 24 26 28 38 27 26 26 26 24 24 26 34 35 29 21 30 29 34 23 26 29 24 23 24 22 20 17 18 20 19 27 21 4 8 11 13 12 12 13
28 20 19 14 19 24 26 28 30 35 33 30 26 22 26 26 26 24 34 29 24 21 30 26 29 29 26 25 24 25 23 23 19 20 16 13 22 20 8 4 4 6 8 11 11
23 22 20 17 18 21 24 26 25 29 34 34 35 32 29 28 24 27 26 27 24 29 24 22 30 33 33 28 22 23 22 21 22 25 21 20 23 19 9 5 5 5 9 13 14
21 20 21 24 26 28 25 25 27 26 27 29 29 30 28 28 29 23 23 24 24 24 26 27 33 33 29 29 29 28 30 27 27 26 25 26 23 17 7 6 10 9 10 13 14
22 21 23 27 26 28 25 25 24 26 27 31 32 34 31 31 30 32 26 23 25 25 25 27 32 27 30 26 30 35 34 30 29 31 32 25 27 21 13 11 5 8 12 15 16
21 21 22 24 25 25 23 27 30 29 27 28 29 33 35 29 29 31 29 28 27 27 27 26 26 29 31 23 26 38 35 34 32 28 29 26 27 19 18 9 11 12 15 16 16
Wind_Direction
324 320 317 316 316 314 311 308 305 305 300 300 299 298 296 294 285 306 311 317 307 264 283 278 279 278 280 274 272 279 267 261 257 262 260 267 279 289 300 305 290 296 279 102 190
319 319 317 314 313 311 308 306 303 302 299 298 297 297 296 297 302 289 312 303 308 294 293 287 279 274 279 278 272 265 262 265 279 243 250 273 295 286 293 306 297 342 58 120 192
320 317 317 315 313 311 306 304 301 299 296 296 296 295 292 296 303 313 305 111 316 298 290 279 276 283 282 277 276 264 258 269 275 235 231 258 295 299 289 289 290 268 289 266 45
317 315 315 314 311 309 307 304 299 296 293 294 294 294 288 313 304 319 359 19 326 307 291 285 284 283 280 270 270 272 264 262 252 232 259 276 271 301 318 288 331 17 9 68 348
312 311 311 310 309 307 305 301 297 293 290 290 291 294 305 297 292 310 349 331 320 309 297 290 284 284 274 274 273 266 274 262 238 233 245 175 265 275 276 357 38 59 31 6 15
315 314 311 310 308 305 303 298 294 289 287 286 289 291 298 288 296 319 342 318 311 315 301 294 288 286 278 276 275 282 263 216 228 225 231 231 236 271 244 351 29 35 31 318 318
317 314 312 309 306 304 301 297 291 286 282 282 287 293 286 280 292 301 312 316 302 305 284 282 285 284 283 278 209 169 232 210 238 243 200 245 263 247 245 249 331 335 303 335 300
314 311 308 305 303 302 299 294 288 283 280 283 289 292 279 288 269 268 271 283 287 287 292 284 287 283 275 287 258 235 241 238 230 211 242 259 250 243 240 240 280 312 303 291 302
311 309 307 304 301 299 297 293 284 283 289 292 290 288 279 281 274 272 279 285 283 291 280 281 287 279 275 254 237 255 228 248 236 259 253 257 243 248 241 244 267 273 294 279 278
315 311 306 304 301 299 297 290 287 289 288 290 283 284 281 282 277 273 271 277 284 286 283 283 282 272 265 204 195 237 241 259 245 243 258 258 256 241 244 248 258 262 272 277 265
318 315 310 305 301 299 300 298 288 283 275 270 278 272 286 277 285 276 264 267 279 273 270 273 269 207 192 254 253 250 255 256 266 258 259 261 256 244 249 253 252 256 261 287 273
313 313 310 306 298 295 299 290 292 289 273 268 261 264 259 276 278 267 257 257 261 261 264 274 255 236 252 255 240 240 242 258 270 255 269 262 262 251 253 253 250 250 255 265 291
315 310 308 305 296 295 293 295 298 296 275 270 264 259 261 266 266 254 251 258 256 255 255 261 269 251 251 251 241 251 239 250 246 255 281 264 271 255 257 258 257 255 252 252 261
317 312 309 307 300 296 283 299 298 299 274 269 262 262 253 259 267 258 250 249 260 249 256 264 259 252 235 255 253 236 249 261 237 226 261 258 273 260 255 258 255 250 241 248 256
318 313 308 306 290 284 290 295 292 286 267 274 263 266 238 241 270 253 250 246 251 252 247 258 254 237 251 214 258 247 253 244 217 233 258 252 269 274 249 252 252 250 244 238 246
315 312 308 303 291 284 292 290 284 263 262 273 263 250 237 237 252 270 238 247 253 251 254 252 260 253 251 257 240 243 256 232 263 262 260 254 263 271 255 230 247 250 239 231 238
312 308 301 301 285 292 294 279 257 254 272 270 258 254 243 240 243 256 229 229 238 240 248 251 252 257 262 252 242 199 171 259 268 266 271 261 267 233 202 239 219 222 222 212 211
312 306 313 302 291 289 284 255 253 262 256 280 266 255 247 245 243 243 240 235 239 246 246 241 247 245 249 247 238 184 202 243 262 265 285 267 267 270 207 186 238 240 212 199 206
313 328 321 312 300 294 265 248 249 257 270 271 269 249 249 247 251 238 248 236 238 236 245 240 252 245 248 249 230 244 219 227 277 284 293 285 280 280 281 265 212 195 193 182 198
321 323 321 309 314 293 260 251 252 268 283 273 258 261 249 246 246 241 246 243 240 237 241 257 244 243 246 250 251 240 235 231 270 268 287 290 279 277 279 159 167 179 177 182 175
332 316 330 327 322 281 262 256 258 263 282 267 263 263 263 257 245 246 245 252 238 243 239 248 252 242 245 245 240 244 237 252 261 276 275 292 281 269 178 166 167 171 175 177 172
334 308 332 308 295 285 273 268 267 256 269 269 265 264 264 268 257 246 246 244 248 238 237 239 257 246 243 251 244 247 242 246 240 262 272 276 264 272 255 176 166 164 172 176 172
319 321 323 332 293 279 277 275 269 260 261 257 260 265 274 262 257 263 248 248 247 249 240 237 246 245 242 246 247 241 245 248 256 263 258 261 273 280 287 224 204 168 166 170 172
329 313 314 312 306 300 287 278 276 268 261 257 255 264 265 261 262 259 261 250 250 242 248 246 245 243 241 240 244 237 243 245 251 254 259 261 270 277 288 238 230 201 170 166 167
335 319 316 294 290 289 290 282 278 274 266 264 255 255 260 257 260 258 265 259 250 250 245 247 246 246 249 243 242 246 244 248 251 256 255 263 266 272 263 210 182 182 175 170 172
333 324 317 300 299 291 287 281 284 280 269 259 258 259 259 257 258 255 262 260 251 254 247 247 246 246 244 244 242 246 247 248 251 253 256 260 263 272 268 268 198 180 177 179 178
342 336 324 305 300 294 285 283 279 284 273 265 267 263 253 260 269 259 260 259 258 256 247 244 244 240 241 243 247 248 247 249 252 256 255 257 264 269 267 233 194 190 182 182 182